FENGYUN 1C DEB, 30560

Orbit data source: Space-Track

FENGYUN 1C DEB, 30560 is space debris in SSO originally from a launch on Mon, 10 May 1999 UTC launched from the Taiyaun Space Center, China (TSC). Fengyun 1C debris stems from the Chinese weather satellite Fengyun-1C, which was intentionally destroyed by a Chinese anti-satellite missile in 2007. This event dramatically increased the amount of space debris, with thousands of trackable fragments posing hazards to satellites and human spaceflight. The Fengyun 1C debris cloud has become a focal point in discussions about space sustainability and the need for international regulations to prevent the creation of new debris.

Loading next visibility...
Identifier
30560, 1999-025ALA
Orbit
SSO
Country
Flag of CNCN / PRC
Related business
Manufacturer
Unknown
Mission
Spacecraft
Bus & Motor
Unknown
Mass
Unknown
Launch date (UTC)
1999-05-10 (26 years ago)
Launch vehicle
Unknown
Launch site
Taiyaun Space Center, China (TSC)
Object type
Payload
Rocket body
Debris
Shape & HBR
Unknown shape, 0.1 m
Radar Cross Section
Small (<0.1 m²)

Expand to show TLE details & history
Last TLE update: 1 day ago

TLE from 1 day ago
0 FENGYUN 1C DEB
1 30560U 99025ALA 25290.98289587  .00001134  00000-0  54946-3 0  9993
2 30560  98.6618 286.1537 0116052  12.8282  46.4853 14.16905496965795
Epoch: 2025-10-17T23:35Z
TLE epoch observation values (Epoch: 2025-10-17T23:35:22.203Z)
Latitude
59.25989°
Longitude
-109.1707°
Altitude
788.712 km
Speed
7.495 km/s
True Right ascension
18h 05m 34s
True Declination
59° 06' 33"
Sunlit
Object was in daylight at epoch
Visualization orbit readout
Latitude
Unknown
Longitude
Unknown
Altitude
Unknown
Speed
Unknown
Apparent Right ascension
Unknown
Apparent Declination
Unknown
Sunlit
N/A
Visualization observer readout
Local Sidereal Time
21:16:49
Azimuth
Unknown
Elevation
Unknown
Doppler factor
Unknown
Orbital elements
Apogee altitude
916.684 km
Perigee altitude
749.31 km
Semi-major axis
7,211.134 km
Eccentricity
0.01161
Inclination
98.6618°
RAAN
286.1537°
Arg. of periapsis
12.8282°
True anomaly
47.45939°
Mean anomaly
46.4853°
Eccentric anomaly
46.97137°
Mean motion
3.54436 °/min
Orbital period
101.57 mins
BSTAR
0.00054946
Loading maneuver chart data...
Computing Atmospheric mass density...

Documentation

Showing up to 5 results
|